Time,TemperatureF,DewpointF,PressureIn,WindDirection,WindDirectionDegrees,WindSpeedMPH,WindSpeedGustMPH,Humidity,HourlyPrecipIn,Conditions,Clouds,dailyrainin,SoftwareType,DateUTC
2013-02-24 00:04:00,43.6,10.9,30.12,North,360,6.0,7.0,26,0.00,,,0.00,Wunderground v.1.15,2013-02-24 08:04:00,
2013-02-24 00:10:00,43.3,10.7,30.12,NNE,15,5.0,5.0,26,0.00,,,0.00,Wunderground v.1.15,2013-02-24 08:10:00,
2013-02-24 00:16:00,43.1,10.5,30.12,NNE,13,5.0,5.0,26,0.00,,,0.00,Wunderground v.1.15,2013-02-24 08:16:00,
2013-02-24 00:22:00,42.8,10.2,30.13,NNW,338,4.0,5.0,26,0.00,,,0.00,Wunderground v.1.15,2013-02-24 08:22:00,
2013-02-24 00:28:00,42.6,10.1,30.13,NNW,348,4.0,5.0,26,0.00,,,0.00,Wunderground v.1.15,2013-02-24 08:28:00,
2013-02-24 00:34:00,42.4,9.9,30.14,North,11,4.0,7.0,26,0.00,,,0.00,Wunderground v.1.15,2013-02-24 08:34:00,
2013-02-24 00:40:00,42.2,9.7,30.14,NNW,348,5.0,5.0,26,0.00,,,0.00,Wunderground v.1.15,2013-02-24 08:40:00,
2013-02-24 00:46:00,41.9,10.3,30.15,NNW,344,7.0,9.0,27,0.00,,,0.00,Wunderground v.1.15,2013-02-24 08:46:00,
2013-02-24 00:52:00,41.7,9.3,30.14,North,360,8.0,9.0,26,0.00,,,0.00,Wunderground v.1.15,2013-02-24 08:52:00,
2013-02-24 00:58:00,41.6,9.2,30.14,NNW,329,8.0,9.0,26,0.00,,,0.00,Wunderground v.1.15,2013-02-24 08:58:00,
2013-02-24 01:04:00,41.5,9.1,30.14,WNW,297,7.0,10.0,26,0.00,,,0.00,Wunderground v.1.15,2013-02-24 09:04:00,
2013-02-24 01:10:00,41.5,9.9,30.14,West,265,5.0,5.0,27,0.00,,,0.00,Wunderground v.1.15,2013-02-24 09:10:00,
2013-02-24 01:16:00,41.3,9.8,30.14,WNW,290,4.0,7.0,27,0.00,,,0.00,Wunderground v.1.15,2013-02-24 09:16:00,
2013-02-24 01:22:00,41.1,10.4,30.13,West,275,5.0,6.0,28,0.00,,,0.00,Wunderground v.1.15,2013-02-24 09:22:00,
2013-02-24 01:28:00,40.9,10.2,30.13,West,281,6.0,6.0,28,0.00,,,0.00,Wunderground v.1.15,2013-02-24 09:28:00,
2013-02-24 01:34:00,40.7,10.9,30.13,WNW,294,5.0,7.0,29,0.00,,,0.00,Wunderground v.1.15,2013-02-24 09:34:00,
2013-02-24 01:40:00,40.6,10.8,30.13,NW,304,6.0,10.0,29,0.00,,,0.00,Wunderground v.1.15,2013-02-24 09:40:00,
2013-02-24 01:46:00,40.5,10.7,30.13,NW,309,7.0,10.0,29,0.00,,,0.00,Wunderground v.1.15,2013-02-24 09:46:00,
2013-02-24 01:52:00,40.3,10.5,30.14,NNW,329,4.0,5.0,29,0.00,,,0.00,Wunderground v.1.15,2013-02-24 09:52:00,
2013-02-24 01:58:00,40.2,10.4,30.14,NNW,333,2.0,5.0,29,0.00,,,0.00,Wunderground v.1.15,2013-02-24 09:58:00,
2013-02-24 02:04:00,39.9,10.9,30.13,NNW,340,1.0,3.0,30,0.00,,,0.00,Wunderground v.1.15,2013-02-24 10:04:00,
2013-02-24 02:10:00,39.6,10.7,30.13,NNW,344,4.0,4.0,30,0.00,,,0.00,Wunderground v.1.15,2013-02-24 10:10:00,
2013-02-24 02:16:00,39.2,10.3,30.12,NNW,337,6.0,10.0,30,0.00,,,0.00,Wunderground v.1.15,2013-02-24 10:16:00,
2013-02-24 02:22:00,39.0,9.4,30.12,NNW,345,7.0,7.0,29,0.00,,,0.00,Wunderground v.1.15,2013-02-24 10:22:00,
2013-02-24 02:28:00,38.9,9.3,30.12,NNW,342,7.0,10.0,29,0.00,,,0.00,Wunderground v.1.15,2013-02-24 10:28:00,
2013-02-24 02:34:00,39.1,8.7,30.11,NNW,343,11.0,19.0,28,0.00,,,0.00,Wunderground v.1.15,2013-02-24 10:34:00,
2013-02-24 02:40:00,39.8,8.5,30.11,NNW,335,17.0,22.0,27,0.00,,,0.00,Wunderground v.1.15,2013-02-24 10:40:00,
2013-02-24 02:46:00,40.5,7.4,30.11,NNW,348,18.0,26.0,25,0.00,,,0.00,Wunderground v.1.15,2013-02-24 10:46:00,
2013-02-24 02:52:00,41.0,7.8,30.11,NNW,345,18.0,22.0,25,0.00,,,0.00,Wunderground v.1.15,2013-02-24 10:52:00,
2013-02-24 02:58:00,41.2,8.0,30.11,NNW,344,17.0,22.0,25,0.00,,,0.00,Wunderground v.1.15,2013-02-24 10:58:00,
2013-02-24 03:04:00,41.2,8.0,30.11,NNW,333,14.0,16.0,25,0.00,,,0.00,Wunderground v.1.15,2013-02-24 11:04:00,
2013-02-24 03:10:00,41.1,7.9,30.12,NNW,338,14.0,14.0,25,0.00,,,0.00,Wunderground v.1.15,2013-02-24 11:10:00,
2013-02-24 03:16:00,41.1,7.9,30.12,North,360,14.0,17.0,25,0.00,,,0.00,Wunderground v.1.15,2013-02-24 11:16:00,
2013-02-24 03:22:00,41.0,7.8,30.12,NNW,346,13.0,16.0,25,0.00,,,0.00,Wunderground v.1.15,2013-02-24 11:22:00,
2013-02-24 03:28:00,40.8,7.6,30.12,NW,322,13.0,16.0,25,0.00,,,0.00,Wunderground v.1.15,2013-02-24 11:28:00,
2013-02-24 03:34:00,40.5,7.4,30.13,WNW,298,11.0,12.0,25,0.00,,,0.00,Wunderground v.1.15,2013-02-24 11:34:00,
2013-02-24 03:40:00,39.8,8.5,30.13,WNW,303,8.0,11.0,27,0.00,,,0.00,Wunderground v.1.15,2013-02-24 11:40:00,
2013-02-24 03:46:00,39.1,7.9,30.13,WNW,289,8.0,11.0,27,0.00,,,0.00,Wunderground v.1.15,2013-02-24 11:46:00,
2013-02-24 03:52:00,38.6,8.2,30.13,WNW,300,7.0,9.0,28,0.00,,,0.00,Wunderground v.1.15,2013-02-24 11:52:00,
2013-02-24 03:58:00,38.5,8.2,30.13,WNW,292,8.0,10.0,28,0.00,,,0.00,Wunderground v.1.15,2013-02-24 11:58:00,
2013-02-24 04:04:00,38.4,8.9,30.13,WNW,301,8.0,11.0,29,0.00,,,0.00,Wunderground v.1.15,2013-02-24 12:04:00,
2013-02-24 04:10:00,38.2,8.7,30.13,WNW,290,6.0,6.0,29,0.00,,,0.00,Wunderground v.1.15,2013-02-24 12:10:00,
2013-02-24 04:16:00,38.1,8.6,30.13,WNW,288,6.0,9.0,29,0.00,,,0.00,Wunderground v.1.15,2013-02-24 12:16:00,
2013-02-24 04:22:00,37.9,8.4,30.13,West,276,6.0,7.0,29,0.00,,,0.00,Wunderground v.1.15,2013-02-24 12:22:00,
2013-02-24 04:28:00,37.9,7.6,30.13,WNW,299,7.0,13.0,28,0.00,,,0.00,Wunderground v.1.15,2013-02-24 12:28:00,
2013-02-24 04:34:00,38.0,8.5,30.13,West,269,8.0,13.0,29,0.00,,,0.00,Wunderground v.1.15,2013-02-24 12:34:00,
2013-02-24 04:40:00,37.8,8.3,30.13,WNW,290,7.0,7.0,29,0.00,,,0.00,Wunderground v.1.15,2013-02-24 12:40:00,
2013-02-24 04:46:00,37.6,7.4,30.14,NW,317,5.0,7.0,28,0.00,,,0.00,Wunderground v.1.15,2013-02-24 12:46:00,
2013-02-24 04:52:00,37.4,7.2,30.14,NW,319,3.0,4.0,28,0.00,,,0.00,Wunderground v.1.15,2013-02-24 12:52:00,
2013-02-24 04:58:00,37.1,7.7,30.14,NNW,327,4.0,6.0,29,0.00,,,0.00,Wunderground v.1.15,2013-02-24 12:58:00,
2013-02-24 05:04:00,36.8,7.5,30.15,NNW,346,8.0,15.0,29,0.00,,,0.00,Wunderground v.1.15,2013-02-24 13:04:00,
2013-02-24 05:10:00,37.5,7.3,30.15,North,351,12.0,13.0,28,0.00,,,0.00,Wunderground v.1.15,2013-02-24 13:10:00,
2013-02-24 05:16:00,38.2,7.9,30.15,NNW,336,13.0,13.0,28,0.00,,,0.00,Wunderground v.1.15,2013-02-24 13:16:00,
2013-02-24 05:22:00,38.8,8.4,30.15,NNW,339,13.0,13.0,28,0.00,,,0.00,Wunderground v.1.15,2013-02-24 13:22:00,
2013-02-24 05:28:00,39.1,7.9,30.15,NNW,336,13.0,15.0,27,0.00,,,0.00,Wunderground v.1.15,2013-02-24 13:28:00,
2013-02-24 05:34:00,39.3,8.0,30.15,NNW,331,13.0,13.0,27,0.00,,,0.00,Wunderground v.1.15,2013-02-24 13:34:00,
2013-02-24 05:40:00,39.4,8.1,30.16,NNW,338,12.0,12.0,27,0.00,,,0.00,Wunderground v.1.15,2013-02-24 13:40:00,
2013-02-24 05:46:00,39.2,8.8,30.16,NNW,338,11.0,12.0,28,0.00,,,0.00,Wunderground v.1.15,2013-02-24 13:46:00,
2013-02-24 05:52:00,38.9,8.5,30.16,North,349,10.0,11.0,28,0.00,,,0.00,Wunderground v.1.15,2013-02-24 13:52:00,
2013-02-24 06:00:00,38.4,8.1,30.16,North,355,10.0,10.0,28,0.00,,,0.00,Wunderground v.1.15,2013-02-24 14:00:00,
2013-02-24 06:06:00,38.2,7.9,30.17,North,355,9.0,10.0,28,0.00,,,0.00,Wunderground v.1.15,2013-02-24 14:06:00,
2013-02-24 06:12:00,38.0,7.7,30.17,NNE,18,7.0,8.0,28,0.00,,,0.00,Wunderground v.1.15,2013-02-24 14:12:00,
2013-02-24 06:18:00,37.9,8.4,30.18,North,5,6.0,8.0,29,0.00,,,0.00,Wunderground v.1.15,2013-02-24 14:18:00,
2013-02-24 06:24:00,37.7,8.2,30.18,North,11,3.0,5.0,29,0.00,,,0.00,Wunderground v.1.15,2013-02-24 14:24:00,
2013-02-24 06:36:00,37.2,8.6,30.18,North,355,5.0,7.0,30,0.00,,,0.00,Wunderground v.1.15,2013-02-24 14:36:00,
2013-02-24 06:42:00,36.8,8.2,30.18,NNW,336,7.0,9.0,30,0.00,,,0.00,Wunderground v.1.15,2013-02-24 14:42:00,
2013-02-24 06:48:00,36.5,8.7,30.18,NNW,341,8.0,10.0,31,0.00,,,0.00,Wunderground v.1.15,2013-02-24 14:48:00,
2013-02-24 06:54:00,36.4,8.6,30.18,NNW,337,9.0,12.0,31,0.00,,,0.00,Wunderground v.1.15,2013-02-24 14:54:00,
2013-02-24 07:00:00,36.6,9.5,30.19,NNW,327,10.0,12.0,32,0.00,,,0.00,Wunderground v.1.15,2013-02-24 15:00:00,
2013-02-24 07:06:00,36.9,9.7,30.19,NW,307,11.0,12.0,32,0.00,,,0.00,Wunderground v.1.15,2013-02-24 15:06:00,
2013-02-24 07:12:00,37.4,9.5,30.20,WNW,303,10.0,11.0,31,0.00,,,0.00,Wunderground v.1.15,2013-02-24 15:12:00,
2013-02-24 07:18:00,37.9,9.9,30.20,NW,306,9.0,11.0,31,0.00,,,0.00,Wunderground v.1.15,2013-02-24 15:18:00,
2013-02-24 07:24:00,38.4,9.6,30.20,NNW,329,10.0,14.0,30,0.00,,,0.00,Wunderground v.1.15,2013-02-24 15:24:00,
2013-02-24 07:30:00,39.0,10.1,30.20,NW,318,12.0,12.0,30,0.00,,,0.00,Wunderground v.1.15,2013-02-24 15:30:00,
2013-02-24 07:36:00,39.5,10.6,30.20,NW,306,11.0,12.0,30,0.00,,,0.00,Wunderground v.1.15,2013-02-24 15:36:00,
2013-02-24 07:42:00,40.0,10.3,30.21,NW,326,10.0,11.0,29,0.00,,,0.00,Wunderground v.1.15,2013-02-24 15:42:00,
2013-02-24 07:48:00,40.5,10.7,30.21,NNW,334,10.0,12.0,29,0.00,,,0.00,Wunderground v.1.15,2013-02-24 15:48:00,
2013-02-24 07:54:00,41.0,10.3,30.21,NW,323,10.0,14.0,28,0.00,,,0.00,Wunderground v.1.15,2013-02-24 15:54:00,
2013-02-24 08:00:00,41.6,10.9,30.22,NNW,341,10.0,10.0,28,0.00,,,0.00,Wunderground v.1.15,2013-02-24 16:00:00,
2013-02-24 08:06:00,42.2,11.4,30.22,North,360,8.0,11.0,28,0.00,,,0.00,Wunderground v.1.15,2013-02-24 16:06:00,
2013-02-24 08:12:00,42.8,11.1,30.22,North,5,7.0,7.0,27,0.00,,,0.00,Wunderground v.1.15,2013-02-24 16:12:00,
2013-02-24 08:18:00,43.3,11.5,30.22,ENE,61,5.0,7.0,27,0.00,,,0.00,Wunderground v.1.15,2013-02-24 16:18:00,
2013-02-24 08:24:00,44.0,11.3,30.23,ESE,105,3.0,4.0,26,0.00,,,0.00,Wunderground v.1.15,2013-02-24 16:24:00,
2013-02-24 08:30:00,44.5,10.8,30.23,East,92,2.0,2.0,25,0.00,,,0.00,Wunderground v.1.15,2013-02-24 16:30:00,
2013-02-24 08:36:00,45.0,11.2,30.23,NNE,29,1.0,2.0,25,0.00,,,0.00,Wunderground v.1.15,2013-02-24 16:36:00,
2013-02-24 08:42:00,45.9,11.1,30.23,North,360,4.0,8.0,24,0.00,,,0.00,Wunderground v.1.15,2013-02-24 16:42:00,
2013-02-24 08:48:00,46.4,10.5,30.23,North,355,7.0,10.0,23,0.00,,,0.00,Wunderground v.1.15,2013-02-24 16:48:00,
2013-02-24 08:54:00,47.0,11.1,30.22,NNW,345,11.0,16.0,23,0.00,,,0.00,Wunderground v.1.15,2013-02-24 16:54:00,
2013-02-24 09:00:00,47.4,11.4,30.23,NNW,348,12.0,12.0,23,0.00,,,0.00,Wunderground v.1.15,2013-02-24 17:00:00,
2013-02-24 09:06:00,47.9,10.8,30.22,North,355,11.0,14.0,22,0.00,,,0.00,Wunderground v.1.15,2013-02-24 17:06:00,
2013-02-24 09:12:00,48.3,11.2,30.22,NNE,26,10.0,11.0,22,0.00,,,0.00,Wunderground v.1.15,2013-02-24 17:12:00,
2013-02-24 09:18:00,48.7,11.5,30.22,North,360,8.0,11.0,22,0.00,,,0.00,Wunderground v.1.15,2013-02-24 17:18:00,
2013-02-24 09:24:00,49.4,11.0,30.22,NNE,32,9.0,11.0,21,0.00,,,0.00,Wunderground v.1.15,2013-02-24 17:24:00,
2013-02-24 09:30:00,50.0,10.4,30.22,NNE,32,9.0,10.0,20,0.00,,,0.00,Wunderground v.1.15,2013-02-24 17:30:00,
2013-02-24 09:36:00,50.8,11.1,30.22,NNE,27,9.0,11.0,20,0.00,,,0.00,Wunderground v.1.15,2013-02-24 17:36:00,
2013-02-24 09:42:00,51.0,11.3,30.22,NNE,13,9.0,14.0,20,0.00,,,0.00,Wunderground v.1.15,2013-02-24 17:42:00,
2013-02-24 09:48:00,51.2,11.4,30.22,North,360,10.0,14.0,20,0.00,,,0.00,Wunderground v.1.15,2013-02-24 17:48:00,
2013-02-24 09:54:00,51.5,10.5,30.22,NE,53,9.0,10.0,19,0.00,,,0.00,Wunderground v.1.15,2013-02-24 17:54:00,
2013-02-24 10:00:00,51.6,10.6,30.22,NNE,28,7.0,9.0,19,0.00,,,0.00,Wunderground v.1.15,2013-02-24 18:00:00,
2013-02-24 10:06:00,51.8,10.8,30.22,NNW,346,7.0,10.0,19,0.00,,,0.00,Wunderground v.1.15,2013-02-24 18:06:00,
2013-02-24 10:12:00,52.8,11.6,30.22,NNW,336,8.0,13.0,19,0.00,,,0.00,Wunderground v.1.15,2013-02-24 18:12:00,
2013-02-24 10:18:00,53.5,12.2,30.21,NW,325,10.0,17.0,19,0.00,,,0.00,Wunderground v.1.15,2013-02-24 18:18:00,
2013-02-24 10:24:00,54.1,11.5,30.21,NNW,346,12.0,13.0,18,0.00,,,0.00,Wunderground v.1.15,2013-02-24 18:24:00,
2013-02-24 10:30:00,54.6,11.9,30.21,NNW,341,10.0,13.0,18,0.00,,,0.00,Wunderground v.1.15,2013-02-24 18:30:00,
2013-02-24 10:36:00,54.6,11.9,30.21,NNW,348,8.0,13.0,18,0.00,,,0.00,Wunderground v.1.15,2013-02-24 18:36:00,
2013-02-24 10:42:00,54.9,10.8,30.20,North,9,8.0,9.0,17,0.00,,,0.00,Wunderground v.1.15,2013-02-24 18:42:00,
2013-02-24 10:48:00,54.9,10.8,30.20,ENE,68,10.0,19.0,17,0.00,,,0.00,Wunderground v.1.15,2013-02-24 18:48:00,
2013-02-24 10:54:00,54.5,9.1,30.20,North,360,9.0,9.0,16,0.00,,,0.00,Wunderground v.1.15,2013-02-24 18:54:00,
2013-02-24 11:00:00,54.4,10.4,30.21,ENE,67,6.0,6.0,17,0.00,,,0.00,Wunderground v.1.15,2013-02-24 19:00:00,
2013-02-24 11:06:00,54.4,9.1,30.20,NE,35,8.0,9.0,16,0.00,,,0.00,Wunderground v.1.15,2013-02-24 19:06:00,
2013-02-24 11:12:00,54.4,9.1,30.20,East,86,9.0,11.0,16,0.00,,,0.00,Wunderground v.1.15,2013-02-24 19:12:00,
2013-02-24 11:18:00,54.6,9.2,30.20,ESE,107,7.0,11.0,16,0.00,,,0.00,Wunderground v.1.15,2013-02-24 19:18:00,
2013-02-24 11:24:00,54.5,9.1,30.20,ENE,67,5.0,7.0,16,0.00,,,0.00,Wunderground v.1.15,2013-02-24 19:24:00,
2013-02-24 11:30:00,54.8,9.4,30.19,ENE,57,5.0,6.0,16,0.00,,,0.00,Wunderground v.1.15,2013-02-24 19:30:00,
2013-02-24 11:36:00,55.0,9.6,30.20,ENE,75,7.0,11.0,16,0.00,,,0.00,Wunderground v.1.15,2013-02-24 19:36:00,
2013-02-24 11:42:00,54.9,9.5,30.19,NNE,33,7.0,11.0,16,0.00,,,0.00,Wunderground v.1.15,2013-02-24 19:42:00,
2013-02-24 11:48:00,55.2,9.7,30.19,ESE,102,8.0,11.0,16,0.00,,,0.00,Wunderground v.1.15,2013-02-24 19:48:00,
2013-02-24 11:54:00,55.6,10.0,30.19,ENE,78,6.0,7.0,16,0.00,,,0.00,Wunderground v.1.15,2013-02-24 19:54:00,
2013-02-24 12:00:00,55.9,8.8,30.19,East,81,8.0,14.0,15,0.00,,,0.00,Wunderground v.1.15,2013-02-24 20:00:00,
2013-02-24 12:06:00,55.9,8.8,30.18,NNE,32,10.0,14.0,15,0.00,,,0.00,Wunderground v.1.15,2013-02-24 20:06:00,
2013-02-24 12:12:00,56.3,9.2,30.18,North,10,8.0,10.0,15,0.00,,,0.00,Wunderground v.1.15,2013-02-24 20:12:00,
2013-02-24 12:18:00,56.2,9.1,30.18,ENE,71,7.0,11.0,15,0.00,,,0.00,Wunderground v.1.15,2013-02-24 20:18:00,
2013-02-24 12:24:00,56.6,9.4,30.17,NE,53,8.0,9.0,15,0.00,,,0.00,Wunderground v.1.15,2013-02-24 20:24:00,
2013-02-24 12:30:00,56.8,9.6,30.17,East,84,8.0,12.0,15,0.00,,,0.00,Wunderground v.1.15,2013-02-24 20:30:00,
2013-02-24 12:36:00,56.9,9.6,30.17,ESE,109,9.0,12.0,15,0.00,,,0.00,Wunderground v.1.15,2013-02-24 20:36:00,
2013-02-24 12:42:00,57.1,9.8,30.17,North,349,5.0,7.0,15,0.00,,,0.00,Wunderground v.1.15,2013-02-24 20:42:00,
2013-02-24 12:48:00,58.0,9.0,30.17,NNE,15,7.0,9.0,14,0.00,,,0.00,Wunderground v.1.15,2013-02-24 20:48:00,
2013-02-24 12:54:00,58.2,9.1,30.16,NNE,15,8.0,9.0,14,0.00,,,0.00,Wunderground v.1.15,2013-02-24 20:54:00,
2013-02-24 13:00:00,58.6,9.5,30.16,NE,38,7.0,11.0,14,0.00,,,0.00,Wunderground v.1.15,2013-02-24 21:00:00,
2013-02-24 13:06:00,58.6,9.5,30.16,ESE,115,8.0,12.0,14,0.00,,,0.00,Wunderground v.1.15,2013-02-24 21:06:00,
2013-02-24 13:12:00,58.4,9.3,30.15,ENE,61,8.0,9.0,14,0.00,,,0.00,Wunderground v.1.15,2013-02-24 21:12:00,
2013-02-24 13:18:00,58.4,9.3,30.15,NNE,33,8.0,9.0,14,0.00,,,0.00,Wunderground v.1.15,2013-02-24 21:18:00,
2013-02-24 13:24:00,58.4,9.3,30.15,NE,37,6.0,11.0,14,0.00,,,0.00,Wunderground v.1.15,2013-02-24 21:24:00,
2013-02-24 13:30:00,59.0,9.8,30.15,North,5,6.0,8.0,14,0.00,,,0.00,Wunderground v.1.15,2013-02-24 21:30:00,
2013-02-24 13:36:00,59.5,8.5,30.15,NE,51,7.0,9.0,13,0.00,,,0.00,Wunderground v.1.15,2013-02-24 21:36:00,
2013-02-24 13:42:00,60.2,9.1,30.14,NNE,15,8.0,12.0,13,0.00,,,0.00,Wunderground v.1.15,2013-02-24 21:42:00,
2013-02-24 13:48:00,60.4,7.5,30.13,North,10,10.0,17.0,12,0.00,,,0.00,Wunderground v.1.15,2013-02-24 21:48:00,
2013-02-24 13:54:00,60.6,7.6,30.13,North,355,11.0,14.0,12,0.00,,,0.00,Wunderground v.1.15,2013-02-24 21:54:00,
2013-02-24 14:00:00,60.9,7.9,30.13,North,350,13.0,14.0,12,0.00,,,0.00,Wunderground v.1.15,2013-02-24 22:00:00,
2013-02-24 14:06:00,61.1,8.0,30.13,NNW,346,12.0,14.0,12,0.00,,,0.00,Wunderground v.1.15,2013-02-24 22:06:00,
2013-02-24 14:12:00,61.5,8.3,30.13,North,360,10.0,12.0,12,0.00,,,0.00,Wunderground v.1.15,2013-02-24 22:12:00,
2013-02-24 14:18:00,61.8,8.6,30.13,NNE,13,8.0,12.0,12,0.00,,,0.00,Wunderground v.1.15,2013-02-24 22:18:00,
2013-02-24 14:24:00,61.3,8.2,30.13,SE,145,6.0,7.0,12,0.00,,,0.00,Wunderground v.1.15,2013-02-24 22:24:00,
2013-02-24 14:30:00,60.6,9.4,30.13,ESE,115,5.0,8.0,13,0.00,,,0.00,Wunderground v.1.15,2013-02-24 22:30:00,
2013-02-24 14:36:00,60.7,7.7,30.13,ENE,67,6.0,8.0,12,0.00,,,0.00,Wunderground v.1.15,2013-02-24 22:36:00,
2013-02-24 14:42:00,60.5,7.5,30.13,ENE,74,7.0,9.0,12,0.00,,,0.00,Wunderground v.1.15,2013-02-24 22:42:00,
2013-02-24 14:48:00,60.1,9.0,30.12,ESE,119,7.0,10.0,13,0.00,,,0.00,Wunderground v.1.15,2013-02-24 22:48:00,
2013-02-24 14:54:00,60.0,8.9,30.13,East,91,8.0,9.0,13,0.00,,,0.00,Wunderground v.1.15,2013-02-24 22:54:00,
2013-02-24 15:00:00,59.7,8.7,30.13,SE,133,9.0,14.0,13,0.00,,,0.00,Wunderground v.1.15,2013-02-24 23:00:00,
2013-02-24 15:06:00,59.9,8.8,30.13,ESE,105,9.0,14.0,13,0.00,,,0.00,Wunderground v.1.15,2013-02-24 23:06:00,
2013-02-24 15:12:00,59.9,7.1,30.13,East,99,7.0,10.0,12,0.00,,,0.00,Wunderground v.1.15,2013-02-24 23:12:00,
2013-02-24 15:18:00,59.6,8.6,30.13,East,92,8.0,10.0,13,0.00,,,0.00,Wunderground v.1.15,2013-02-24 23:18:00,
2013-02-24 15:24:00,59.5,6.8,30.13,NE,49,7.0,10.0,12,0.00,,,0.00,Wunderground v.1.15,2013-02-24 23:24:00,
2013-02-24 15:30:00,59.2,6.5,30.13,SE,125,8.0,13.0,12,0.00,,,0.00,Wunderground v.1.15,2013-02-24 23:30:00,
2013-02-24 15:36:00,59.0,8.1,30.13,East,100,10.0,13.0,13,0.00,,,0.00,Wunderground v.1.15,2013-02-24 23:36:00,
2013-02-24 15:42:00,59.0,8.1,30.13,ENE,59,9.0,10.0,13,0.00,,,0.00,Wunderground v.1.15,2013-02-24 23:42:00,
2013-02-24 15:48:00,59.0,8.1,30.13,East,91,7.0,10.0,13,0.00,,,0.00,Wunderground v.1.15,2013-02-24 23:48:00,
2013-02-24 15:54:00,59.0,8.1,30.14,ESE,112,6.0,9.0,13,0.00,,,0.00,Wunderground v.1.15,2013-02-24 23:54:00,
2013-02-24 16:00:00,59.0,6.4,30.13,East,96,7.0,7.0,12,0.00,,,0.00,Wunderground v.1.15,2013-02-25 00:00:00,
2013-02-24 16:06:00,59.0,6.4,30.14,ENE,63,9.0,12.0,12,0.00,,,0.00,Wunderground v.1.15,2013-02-25 00:06:00,
2013-02-24 16:12:00,58.7,6.1,30.14,ESE,115,8.0,12.0,12,0.00,,,0.00,Wunderground v.1.15,2013-02-25 00:12:00,
2013-02-24 16:18:00,58.4,7.7,30.13,East,85,9.0,13.0,13,0.00,,,0.00,Wunderground v.1.15,2013-02-25 00:18:00,
2013-02-24 16:24:00,57.7,7.1,30.13,ENE,78,11.0,13.0,13,0.00,,,0.00,Wunderground v.1.15,2013-02-25 00:24:00,
2013-02-24 16:30:00,57.3,6.8,30.13,East,90,10.0,10.0,13,0.00,,,0.00,Wunderground v.1.15,2013-02-25 00:30:00,
2013-02-24 16:36:00,57.0,6.5,30.13,East,93,9.0,12.0,13,0.00,,,0.00,Wunderground v.1.15,2013-02-25 00:36:00,
2013-02-24 16:42:00,56.7,6.3,30.13,East,81,9.0,10.0,13,0.00,,,0.00,Wunderground v.1.15,2013-02-25 00:42:00,
2013-02-24 16:48:00,56.4,7.7,30.13,ESE,117,8.0,10.0,14,0.00,,,0.00,Wunderground v.1.15,2013-02-25 00:48:00,
2013-02-24 16:54:00,56.2,7.5,30.13,ESE,103,8.0,11.0,14,0.00,,,0.00,Wunderground v.1.15,2013-02-25 00:54:00,
2013-02-24 17:00:00,55.9,7.3,30.14,ENE,71,8.0,9.0,14,0.00,,,0.00,Wunderground v.1.15,2013-02-25 01:00:00,
2013-02-24 17:06:00,55.5,7.0,30.14,East,80,7.0,9.0,14,0.00,,,0.00,Wunderground v.1.15,2013-02-25 01:06:00,
2013-02-24 17:12:00,55.1,8.2,30.14,East,86,7.0,7.0,15,0.00,,,0.00,Wunderground v.1.15,2013-02-25 01:12:00,
2013-02-24 17:18:00,54.8,8.0,30.14,East,84,7.0,9.0,15,0.00,,,0.00,Wunderground v.1.15,2013-02-25 01:18:00,
2013-02-24 17:24:00,54.4,7.6,30.14,ENE,65,8.0,10.0,15,0.00,,,0.00,Wunderground v.1.15,2013-02-25 01:24:00,
2013-02-24 17:30:00,54.1,7.4,30.14,East,86,6.0,7.0,15,0.00,,,0.00,Wunderground v.1.15,2013-02-25 01:30:00,
2013-02-24 17:36:00,53.7,7.1,30.14,East,96,5.0,7.0,15,0.00,,,0.00,Wunderground v.1.15,2013-02-25 01:36:00,
2013-02-24 17:42:00,53.4,6.8,30.14,ESE,102,5.0,5.0,15,0.00,,,0.00,Wunderground v.1.15,2013-02-25 01:42:00,
2013-02-24 17:48:00,53.0,6.5,30.14,ESE,114,5.0,7.0,15,0.00,,,0.00,Wunderground v.1.15,2013-02-25 01:48:00,
2013-02-24 17:54:00,52.7,7.7,30.14,ESE,119,6.0,9.0,16,0.00,,,0.00,Wunderground v.1.15,2013-02-25 01:54:00,
2013-02-24 18:00:00,52.3,5.9,30.14,ESE,116,6.0,9.0,15,0.00,,,0.00,Wunderground v.1.15,2013-02-25 02:00:00,
2013-02-24 18:06:00,51.9,7.0,30.14,ESE,109,7.0,9.0,16,0.00,,,0.00,Wunderground v.1.15,2013-02-25 02:06:00,
2013-02-24 18:12:00,51.6,6.8,30.14,SE,141,6.0,7.0,16,0.00,,,0.00,Wunderground v.1.15,2013-02-25 02:12:00,
2013-02-24 18:18:00,51.4,6.6,30.14,East,98,6.0,9.0,16,0.00,,,0.00,Wunderground v.1.15,2013-02-25 02:18:00,
2013-02-24 18:24:00,51.2,6.5,30.15,ESE,107,7.0,12.0,16,0.00,,,0.00,Wunderground v.1.15,2013-02-25 02:24:00,
2013-02-24 18:30:00,51.1,6.4,30.15,ESE,109,8.0,9.0,16,0.00,,,0.00,Wunderground v.1.15,2013-02-25 02:30:00,
2013-02-24 18:36:00,50.9,6.2,30.15,ESE,102,8.0,11.0,16,0.00,,,0.00,Wunderground v.1.15,2013-02-25 02:36:00,
2013-02-24 18:42:00,50.8,6.1,30.15,East,90,7.0,10.0,16,0.00,,,0.00,Wunderground v.1.15,2013-02-25 02:42:00,
2013-02-24 18:48:00,50.7,6.1,30.15,ESE,113,7.0,10.0,16,0.00,,,0.00,Wunderground v.1.15,2013-02-25 02:48:00,
2013-02-24 18:54:00,50.5,7.2,30.15,ESE,115,7.0,11.0,17,0.00,,,0.00,Wunderground v.1.15,2013-02-25 02:54:00,
2013-02-24 19:00:00,50.3,7.1,30.16,ESE,119,9.0,9.0,17,0.00,,,0.00,Wunderground v.1.15,2013-02-25 03:00:00,
2013-02-24 19:06:00,50.1,5.6,30.16,SE,130,9.0,13.0,16,0.00,,,0.00,Wunderground v.1.15,2013-02-25 03:06:00,
2013-02-24 19:12:00,49.9,5.4,30.16,SE,134,9.0,9.0,16,0.00,,,0.00,Wunderground v.1.15,2013-02-25 03:12:00,
2013-02-24 19:18:00,49.7,5.2,30.17,ESE,103,9.0,11.0,16,0.00,,,0.00,Wunderground v.1.15,2013-02-25 03:18:00,
2013-02-24 19:24:00,49.6,5.2,30.17,SE,144,10.0,10.0,16,0.00,,,0.00,Wunderground v.1.15,2013-02-25 03:24:00,
2013-02-24 19:30:00,49.1,4.8,30.17,SSE,156,7.0,7.0,16,0.00,,,0.00,Wunderground v.1.15,2013-02-25 03:30:00,
2013-02-24 19:36:00,48.5,5.6,30.17,SE,146,7.0,11.0,17,0.00,,,0.00,Wunderground v.1.15,2013-02-25 03:36:00,
2013-02-24 19:42:00,47.6,4.9,30.17,SSE,157,10.0,12.0,17,0.00,,,0.00,Wunderground v.1.15,2013-02-25 03:42:00,
2013-02-24 19:48:00,47.2,4.5,30.18,SSE,155,11.0,14.0,17,0.00,,,0.00,Wunderground v.1.15,2013-02-25 03:48:00,
2013-02-24 19:54:00,46.9,4.3,30.18,SSE,167,11.0,13.0,17,0.00,,,0.00,Wunderground v.1.15,2013-02-25 03:54:00,
2013-02-24 20:00:00,46.6,5.3,30.18,SSE,163,12.0,13.0,18,0.00,,,0.00,Wunderground v.1.15,2013-02-25 04:00:00,
2013-02-24 20:06:00,46.7,5.4,30.18,South,173,13.0,15.0,18,0.00,,,0.00,Wunderground v.1.15,2013-02-25 04:06:00,
2013-02-24 20:12:00,47.0,5.6,30.19,SSE,166,13.0,14.0,18,0.00,,,0.00,Wunderground v.1.15,2013-02-25 04:12:00,
2013-02-24 20:18:00,47.2,5.8,30.19,South,169,13.0,15.0,18,0.00,,,0.00,Wunderground v.1.15,2013-02-25 04:18:00,
2013-02-24 20:24:00,47.0,5.6,30.19,SSE,167,14.0,14.0,18,0.00,,,0.00,Wunderground v.1.15,2013-02-25 04:24:00,
2013-02-24 20:30:00,46.6,5.3,30.20,SSE,163,14.0,15.0,18,0.00,,,0.00,Wunderground v.1.15,2013-02-25 04:30:00,
2013-02-24 20:36:00,46.2,4.9,30.20,South,171,14.0,15.0,18,0.00,,,0.00,Wunderground v.1.15,2013-02-25 04:36:00,
2013-02-24 20:42:00,46.2,4.9,30.20,SSE,164,13.0,14.0,18,0.00,,,0.00,Wunderground v.1.15,2013-02-25 04:42:00,
2013-02-24 20:48:00,46.0,4.8,30.20,SSE,161,13.0,14.0,18,0.00,,,0.00,Wunderground v.1.15,2013-02-25 04:48:00,
2013-02-24 20:54:00,45.7,4.5,30.20,SSE,157,13.0,14.0,18,0.00,,,0.00,Wunderground v.1.15,2013-02-25 04:54:00,
2013-02-24 21:00:00,45.5,5.6,30.20,SSE,165,13.0,13.0,19,0.00,,,0.00,Wunderground v.1.15,2013-02-25 05:00:00,
2013-02-24 21:02:00,45.5,5.6,30.20,South,179,12.0,13.0,19,0.00,,,0.00,Wunderground v.1.15,2013-02-25 05:02:00,
2013-02-24 21:06:00,45.5,5.6,30.21,SSE,167,13.0,13.0,19,0.00,,,0.00,Wunderground v.1.15,2013-02-25 05:06:00,
2013-02-24 21:12:00,45.7,5.7,30.21,SSE,165,13.0,13.0,19,0.00,,,0.00,Wunderground v.1.15,2013-02-25 05:12:00,
2013-02-24 21:14:00,45.6,5.6,30.21,SSE,165,12.0,13.0,19,0.00,,,0.00,Wunderground v.1.15,2013-02-25 05:14:00,
2013-02-24 21:20:00,45.7,5.7,30.21,SSE,165,11.0,11.0,19,0.00,,,0.00,Wunderground v.1.15,2013-02-25 05:20:00,
2013-02-24 21:26:00,45.7,5.7,30.21,SSE,162,11.0,13.0,19,0.00,,,0.00,Wunderground v.1.15,2013-02-25 05:26:00,
2013-02-24 21:32:00,45.8,5.8,30.21,South,180,10.0,11.0,19,0.00,,,0.00,Wunderground v.1.15,2013-02-25 05:32:00,
2013-02-24 21:38:00,45.8,5.8,30.22,SSW,192,10.0,11.0,19,0.00,,,0.00,Wunderground v.1.15,2013-02-25 05:38:00,
2013-02-24 21:44:00,45.6,5.6,30.22,SSW,213,9.0,11.0,19,0.00,,,0.00,Wunderground v.1.15,2013-02-25 05:44:00,
2013-02-24 21:50:00,45.7,5.7,30.22,SW,226,8.0,8.0,19,0.00,,,0.00,Wunderground v.1.15,2013-02-25 05:50:00,
2013-02-24 21:56:00,45.8,5.8,30.22,SW,221,9.0,12.0,19,0.00,,,0.00,Wunderground v.1.15,2013-02-25 05:56:00,
2013-02-24 22:02:00,46.0,6.0,30.23,SW,231,9.0,9.0,19,0.00,,,0.00,Wunderground v.1.15,2013-02-25 06:02:00,
2013-02-24 22:08:00,46.1,6.0,30.23,SW,225,7.0,9.0,19,0.00,,,0.00,Wunderground v.1.15,2013-02-25 06:08:00,
2013-02-24 22:14:00,46.0,6.0,30.22,SW,215,6.0,6.0,19,0.00,,,0.00,Wunderground v.1.15,2013-02-25 06:14:00,
2013-02-24 22:20:00,45.8,5.8,30.23,SSW,210,5.0,5.0,19,0.00,,,0.00,Wunderground v.1.15,2013-02-25 06:20:00,
2013-02-24 22:26:00,45.6,5.6,30.23,SSW,210,2.0,5.0,19,0.00,,,0.00,Wunderground v.1.15,2013-02-25 06:26:00,
2013-02-24 22:32:00,45.1,5.2,30.23,SSW,210,1.0,1.0,19,0.00,,,0.00,Wunderground v.1.15,2013-02-25 06:32:00,
2013-02-24 22:38:00,44.8,6.1,30.23,SSW,210,0.0,2.0,20,0.00,,,0.00,Wunderground v.1.15,2013-02-25 06:38:00,
2013-02-24 22:44:00,44.1,4.4,30.23,SSW,210,0.0,1.0,19,0.00,,,0.00,Wunderground v.1.15,2013-02-25 06:44:00,
2013-02-24 22:50:00,43.4,3.8,30.23,SSW,210,1.0,1.0,19,0.00,,,0.00,Wunderground v.1.15,2013-02-25 06:50:00,
2013-02-24 22:56:00,42.7,4.3,30.23,SSW,210,2.0,2.0,20,0.00,,,0.00,Wunderground v.1.15,2013-02-25 06:56:00,
2013-02-24 23:02:00,42.1,3.8,30.23,SSW,207,2.0,5.0,20,0.00,,,0.00,Wunderground v.1.15,2013-02-25 07:02:00,
2013-02-24 23:08:00,41.6,4.5,30.23,SSW,203,4.0,6.0,21,0.00,,,0.00,Wunderground v.1.15,2013-02-25 07:08:00,
2013-02-24 23:14:00,41.2,4.1,30.23,SSW,197,5.0,9.0,21,0.00,,,0.00,Wunderground v.1.15,2013-02-25 07:14:00,
2013-02-24 23:20:00,41.0,5.0,30.23,South,190,7.0,7.0,22,0.00,,,0.00,Wunderground v.1.15,2013-02-25 07:20:00,
2013-02-24 23:26:00,40.9,3.9,30.23,South,190,6.0,7.0,21,0.00,,,0.00,Wunderground v.1.15,2013-02-25 07:26:00,
2013-02-24 23:32:00,40.8,4.8,30.23,South,190,5.0,7.0,22,0.00,,,0.00,Wunderground v.1.15,2013-02-25 07:32:00,
2013-02-24 23:38:00,40.8,4.8,30.24,South,190,5.0,7.0,22,0.00,,,0.00,Wunderground v.1.15,2013-02-25 07:38:00,
2013-02-24 23:44:00,40.8,4.8,30.24,South,190,5.0,6.0,22,0.00,,,0.00,Wunderground v.1.15,2013-02-25 07:44:00,
2013-02-24 23:50:00,40.7,4.7,30.24,South,190,5.0,5.0,22,0.00,,,0.00,Wunderground v.1.15,2013-02-25 07:50:00,
2013-02-24 23:56:00,40.8,4.8,30.24,SSW,205,5.0,7.0,22,0.00,,,0.00,Wunderground v.1.15,2013-02-25 07:56:00,